When you browse on this site, cookies collect data to enhance your experience and personalize the content and advertising you see.
Visit our Privacy Policy to learn more. By continuing to use the site, you agree to this use of cookies and data.
  • In Spain
  • List of Countries
  • For 7 days
  • Water Temperature
  • Weather Map
  • Weather Widgets
  • user-avatar
    Login

    Hourly Weather Rzeszow

    Today, 1 June, Monday

    Time Temperature Precipitation Wind Pressure Humidity
    00:00 +10°C° 0.1 mm 3 mps 742 mmHg 96%
    01:00 +10°C° 0 mm 3 mps 743 mmHg 95%
    02:00 +10°C° 0 mm 3 mps 743 mmHg 96%
    03:00 +10°C° 0 mm 3 mps 743 mmHg 97%
    04:00 +10°C° 0 mm 2 mps 743 mmHg 97%
    05:00 +11°C° 0.1 mm 3 mps 743 mmHg 95%
    06:00 +12°C° 0.1 mm 3 mps 743 mmHg 93%
    07:00 +13°C° 0 mm 4 mps 743 mmHg 91%
    08:00 +14°C° 0.1 mm 5 mps 743 mmHg 82%
    09:00 +15°C° 0.1 mm 6 mps 743 mmHg 72%
    10:00 +16°C° 0.1 mm 7 mps 743 mmHg 63%
    11:00 +16°C° 0.1 mm 7 mps 743 mmHg 64%
    12:00 +16°C° 0.1 mm 6 mps 743 mmHg 65%
    13:00 +16°C° 0.1 mm 6 mps 743 mmHg 66%
    14:00 +15°C° 0.2 mm 6 mps 743 mmHg 67%
    15:00 +15°C° 0.2 mm 6 mps 743 mmHg 68%
    16:00 +14°C° 0.2 mm 6 mps 743 mmHg 69%
    17:00 +13°C° 0.1 mm 5 mps 743 mmHg 73%
    18:00 +12°C° 0.1 mm 4 mps 744 mmHg 77%
    19:00 +10°C° 0.1 mm 4 mps 744 mmHg 80%
    20:00 +9°C° 0 mm 3 mps 744 mmHg 82%
    21:00 +9°C° 0 mm 3 mps 744 mmHg 84%
    22:00 +8°C° 0 mm 3 mps 744 mmHg 85%
    23:00 +7°C° 0 mm 2 mps 744 mmHg 87%

    Tomorrow, 2 June, Tuesday

    Time Temperature Precipitation Wind Pressure Humidity
    00:00 +6°C° 0 mm 2 mps 743 mmHg 89%
    01:00 +5°C° 0 mm 2 mps 743 mmHg 91%
    02:00 +5°C° 0 mm 2 mps 743 mmHg 92%
    03:00 +5°C° 0 mm 2 mps 742 mmHg 92%
    04:00 +5°C° 0 mm 2 mps 742 mmHg 93%
    05:00 +7°C° 0 mm 3 mps 742 mmHg 89%
    06:00 +8°C° 0 mm 4 mps 742 mmHg 85%
    07:00 +10°C° 0 mm 5 mps 742 mmHg 81%
    08:00 +12°C° 0.1 mm 5 mps 742 mmHg 75%
    09:00 +13°C° 0.1 mm 6 mps 741 mmHg 68%
    10:00 +14°C° 0.1 mm 6 mps 741 mmHg 62%
    11:00 +14°C° 0.2 mm 7 mps 741 mmHg 64%
    12:00 +14°C° 0.2 mm 7 mps 741 mmHg 66%
    13:00 +14°C° 0.2 mm 7 mps 740 mmHg 68%
    14:00 +14°C° 0.4 mm 6 mps 740 mmHg 72%
    15:00 +14°C° 0.4 mm 5 mps 740 mmHg 76%
    16:00 +13°C° 0.4 mm 4 mps 739 mmHg 80%
    17:00 +13°C° 0.3 mm 4 mps 739 mmHg 82%
    18:00 +12°C° 0.3 mm 4 mps 739 mmHg 83%
    19:00 +11°C° 0.3 mm 4 mps 739 mmHg 85%
    20:00 +10°C° 0.1 mm 3 mps 739 mmHg 88%
    21:00 +9°C° 0.1 mm 2 mps 738 mmHg 90%
    22:00 +8°C° 0.1 mm 2 mps 738 mmHg 93%
    23:00 +8°C° 0.1 mm 2 mps 738 mmHg 94%

    Day after tomorrow, 3 June, Wednesday

    Time Temperature Precipitation Wind Pressure Humidity
    00:00 +7°C° 0.1 mm 2 mps 738 mmHg 94%
    01:00 +7°C° 0.1 mm 2 mps 738 mmHg 95%
    02:00 +7°C° 0 mm 2 mps 737 mmHg 95%
    03:00 +7°C° 0 mm 2 mps 737 mmHg 95%
    04:00 +6°C° 0 mm 2 mps 737 mmHg 95%
    05:00 +8°C° 0.1 mm 3 mps 737 mmHg 94%
    06:00 +9°C° 0.1 mm 3 mps 737 mmHg 93%
    07:00 +10°C° 0.1 mm 4 mps 736 mmHg 91%
    08:00 +11°C° 0.4 mm 4 mps 736 mmHg 88%
    09:00 +11°C° 0.4 mm 4 mps 736 mmHg 85%
    10:00 +12°C° 0.4 mm 4 mps 736 mmHg 82%
    11:00 +11°C° 0.3 mm 4 mps 736 mmHg 85%
    12:00 +11°C° 0.3 mm 4 mps 736 mmHg 87%
    13:00 +11°C° 0.3 mm 3 mps 736 mmHg 90%
    14:00 +12°C° 0.1 mm 4 mps 736 mmHg 86%
    15:00 +13°C° 0.1 mm 4 mps 735 mmHg 81%
    16:00 +14°C° 0.1 mm 4 mps 735 mmHg 77%
    17:00 +13°C° 0.1 mm 3 mps 735 mmHg 81%
    18:00 +13°C° 0.1 mm 2 mps 735 mmHg 85%
    19:00 +12°C° 0.1 mm 2 mps 735 mmHg 88%
    20:00 +10°C° 0 mm 2 mps 735 mmHg 90%
    21:00 +9°C° 0 mm 2 mps 735 mmHg 91%
    22:00 +8°C° 0 mm 2 mps 735 mmHg 92%
    23:00 +8°C° 0 mm 2 mps 735 mmHg 93%

    4 June, Thursday

    Time Temperature Precipitation Wind Pressure Humidity
    00:00 +7°C° 0 mm 2 mps 735 mmHg 94%
    01:00 +7°C° 0 mm 2 mps 735 mmHg 94%
    02:00 +7°C° 0 mm 2 mps 735 mmHg 94%
    03:00 +7°C° 0 mm 2 mps 735 mmHg 94%
    04:00 +7°C° 0 mm 2 mps 734 mmHg 94%
    05:00 +9°C° 0 mm 2 mps 734 mmHg 89%
    06:00 +12°C° 0 mm 2 mps 734 mmHg 85%
    07:00 +13°C° 0 mm 2 mps 734 mmHg 80%
    08:00 +15°C° 0 mm 2 mps 734 mmHg 74%
    09:00 +16°C° 0 mm 2 mps 734 mmHg 68%
    10:00 +18°C° 0 mm 3 mps 734 mmHg 62%
    11:00 +18°C° 0 mm 3 mps 734 mmHg 61%
    12:00 +19°C° 0 mm 3 mps 733 mmHg 59%
    13:00 +20°C° 0 mm 3 mps 733 mmHg 57%
    14:00 +20°C° 0 mm 2 mps 733 mmHg 58%
    15:00 +20°C° 0 mm 2 mps 733 mmHg 58%
    16:00 +20°C° 0 mm 2 mps 732 mmHg 59%
    17:00 +19°C° 0.1 mm 2 mps 732 mmHg 66%
    18:00 +17°C° 0.1 mm 2 mps 732 mmHg 74%
    19:00 +16°C° 0.1 mm 2 mps 732 mmHg 81%
    20:00 +15°C° 0.1 mm 2 mps 732 mmHg 85%
    21:00 +14°C° 0.1 mm 2 mps 732 mmHg 88%
    22:00 +12°C° 0.1 mm 3 mps 732 mmHg 92%
    23:00 +12°C° 0 mm 3 mps 732 mmHg 93%

    5 June, Friday

    Time Temperature Precipitation Wind Pressure Humidity
    00:00 +12°C° 0 mm 3 mps 731 mmHg 93%
    01:00 +12°C° 0 mm 3 mps 731 mmHg 94%
    02:00 +13°C° 0 mm 4 mps 731 mmHg 94%
    03:00 +13°C° 0 mm 4 mps 731 mmHg 93%
    04:00 +14°C° 0 mm 5 mps 730 mmHg 93%
    05:00 +15°C° 0 mm 5 mps 730 mmHg 90%
    06:00 +16°C° 0 mm 6 mps 731 mmHg 87%
    07:00 +17°C° 0 mm 7 mps 731 mmHg 84%
    08:00 +17°C° 0 mm 7 mps 731 mmHg 82%
    09:00 +17°C° 0 mm 7 mps 731 mmHg 80%
    10:00 +17°C° 0 mm 7 mps 731 mmHg 79%
    11:00 +18°C° 0 mm 7 mps 731 mmHg 78%
    12:00 +20°C° 0 mm 7 mps 731 mmHg 76%
    13:00 +21°C° 0 mm 7 mps 731 mmHg 75%
    14:00 +21°C° 0.1 mm 7 mps 731 mmHg 74%
    15:00 +22°C° 0.1 mm 7 mps 731 mmHg 74%
    16:00 +22°C° 0.1 mm 7 mps 731 mmHg 73%
    17:00 +21°C° 0.2 mm 6 mps 731 mmHg 77%
    18:00 +20°C° 0.2 mm 5 mps 732 mmHg 80%
    19:00 +19°C° 0.2 mm 4 mps 732 mmHg 84%
    20:00 +18°C° 0.4 mm 4 mps 732 mmHg 84%
    21:00 +18°C° 0.4 mm 4 mps 732 mmHg 85%
    22:00 +17°C° 0.4 mm 4 mps 733 mmHg 86%
    23:00 +17°C° 0.5 mm 4 mps 733 mmHg 89%

    6 June, Saturday

    Time Temperature Precipitation Wind Pressure Humidity
    00:00 +15°C° 0.5 mm 4 mps 733 mmHg 93%
    01:00 +14°C° 0.5 mm 4 mps 733 mmHg 96%
    02:00 +14°C° 1.3 mm 4 mps 733 mmHg 96%
    03:00 +13°C° 1.3 mm 5 mps 734 mmHg 97%
    04:00 +12°C° 1.3 mm 5 mps 734 mmHg 97%
    05:00 +11°C° 0.3 mm 6 mps 734 mmHg 96%
    06:00 +11°C° 0.3 mm 6 mps 735 mmHg 96%
    07:00 +10°C° 0.3 mm 6 mps 735 mmHg 95%
    08:00 +10°C° 0.2 mm 6 mps 736 mmHg 95%
    09:00 +10°C° 0.2 mm 5 mps 737 mmHg 94%
    10:00 +11°C° 0.2 mm 4 mps 737 mmHg 94%
    11:00 +12°C° 0.1 mm 4 mps 737 mmHg 92%
    12:00 +12°C° 0.1 mm 3 mps 738 mmHg 90%
    13:00 +12°C° 0.1 mm 3 mps 738 mmHg 89%
    14:00 +15°C° 0 mm 2 mps 738 mmHg 83%
    15:00 +16°C° 0 mm 2 mps 738 mmHg 77%
    16:00 +17°C° 0 mm 2 mps 738 mmHg 72%
    17:00 +16°C° 0 mm 2 mps 738 mmHg 77%
    18:00 +15°C° 0 mm 2 mps 738 mmHg 82%
    19:00 +14°C° 0 mm 2 mps 738 mmHg 87%
    20:00 +14°C° 0 mm 2 mps 738 mmHg 87%
    21:00 +12°C° 0 mm 3 mps 739 mmHg 88%
    22:00 +11°C° 0 mm 3 mps 739 mmHg 88%
    23:00 +11°C° 0 mm 3 mps 739 mmHg 88%
    Show more